Location: Goettingen
(51.5300°N, 9.9433°E)
Time: 18:32:48
(UTC+02:00)

ISS - Pass Details

Date: 24 September 2021
Orbit: 419 x 423 km, 51.6° (Epoch: 20 September)

Event Time Altitude Azimuth Distance (km) Brightness Sun altitude
Rises 20:59:24 0° 269° (W) 2,366 1.4 -16.9°
Reaches altitude 10° 21:01:29 10° 270° (W) 1,503 0.1 -17.2°
Maximum altitude 21:04:52 86° 360° (N) 427 -3.8 -17.7°
Enters shadow 21:05:32 55° 84° (E) 512 -3.7 -17.8°
